Zurück zum Katalog

STARLINK-33822

AktivKommunikationVLEO
NORAD 63658·PAYLOAD·🇺🇸 United States

Gestartet Apr 25, 2025 von Cape Canaveral Space Force Station

Loading…

Nächste Überflüge (nächste 24 Stunden)

TLE

AktuellSource: CelesTrak SupGP

Epoche: Sep 14, 2026, 22:37 UTC

1 63658C 25083AA  26257.94284722 -.00001149  00000+0 -41624-4 0  2570
2 63658  43.0038  16.5644 0001452 271.0434 274.7718 15.27579373    13

Verfolge STARLINK-33822 in Echtzeit mit AllMySat

Download on the App Store